Back to catalog

SL-12 DEB

LostHEO
NORAD 29449·DEBRIS·🇷🇺 Russia

Launched May 31, 1989 from Baikonur Cosmodrome

Loading…

Next Passes (next 24 hours)

TLE

StaleSource: Space-Track

Epoch: May 17, 2022, 18:35 UTC

1 29449U 89039CT  22137.77445392 -.00000020  00000-0  00000+0 0  9995
2 29449  61.7598 267.8972 5051358 117.0998  11.0505  4.21335480244045

Track SL-12 DEB in real time with AllMySat

Download on the App Store